Tracking 31011 objects as of 12-Jul-2025
HD Live streaming from Space Station
objects crossing your sky now

STARLINK-4160

Track STARLINK-4160 now!
10-day predictions
STARLINK-4160 is classified as:


NORAD ID: 53030
Int'l Code: 2022-076AW
Perigee: 546.1 km
Apogee: 547.7 km
Inclination: 53.2 °
Period: 95.4 minutes
Semi major axis: 6917 km
RCS: Unknown
Launch date: July 7, 2022
Source: United States (US)
Launch site: AIR FORCE EASTERN TEST RANGE (AFETR)
Your satellite tracking list
Your tracking list is empty




NASA's NSSDC Master Catalog

Two Line Element Set (TLE):
1 53030U 22076AW  25192.95551830  .00005854  00000-0  38554-3 0  9993
2 53030  53.2163  85.0111 0001173 104.8123 255.2999 15.08844536166648
Source of the keplerian elements: AFSPC